Weather History for Woodward, OK

Change the Weather History Date:

Sunday, June 23, 2013

  Actual Average (KGAG) Record (KGAG)
Temperature  
Mean Temperature 85 °F -  
Max Temperature 93 °F 90 °F 104 °F (2011)
Min Temperature 77 °F 65 °F 53 °F (2004)
Cooling Degree Days 20    
Growing Degree Days 35 (Base 50)    
Moisture  
Dew Point 57 °F    
Average Humidity 39    
Maximum Humidity 48    
Minimum Humidity 28    
Precipitation  
Precipitation 0.00 in - - ()
Sea Level Pressure  
Sea Level Pressure 29.85 in    
Wind  
Wind Speed 21 mph (South)    
Max Wind Speed 28 mph    
Max Gust Speed 37 mph    
Visibility 10 miles    
Events      
Averages and records for this station are not official NWS values.
T = Trace of Precipitation, MM = Missing Value Source: NWS Daily Summary

Daily Weather History Graph

Daily Weather History Graph

Search for Another Location

Airport:

Trip Planner

Search our weather history database for the weather conditions in past years. The results will help you decide how hot, cold, wet, or windy it might be!

Date:

Astronomy

Jun. 23, 2013 Rise Set
Actual Time 6:20 AM CDT 8:59 PM CDT
Civil Twilight 5:50 AM CDT 9:30 PM CDT
Nautical Twilight 5:12 AM CDT 10:08 PM CDT
Astronomical Twilight 4:29 AM CDT 10:50 PM CDT
Moon 9:16 PM CDT (6/23) 6:38 AM CDT (6/23)
Length of Visible Light 15h 39m
Length of Day
14h 38m
Full, 100% of the Moon is Illuminated
Jun 23
Full
Jun 29
Last Quarter
Jul 8
New
Jul 15
First Quarter
Jul 22
Full

Hourly Weather History & Observations

Time (CDT) Temp. Heat Index Dew Point Humidity Pressure Visibility Wind Dir Wind Speed Gust Speed Precip Events Conditions
12:15 AM 82.4 °F 82.5 °F 59.0 °F 45% 29.86 in 10.0 mi South 24.2 mph 31.1 mph N/A   Clear
12:35 AM 82.4 °F 82.5 °F 59.0 °F 45% 29.86 in 10.0 mi SSE 20.7 mph 32.2 mph N/A   Clear
12:55 AM 82.4 °F 82.0 °F 57.2 °F 42% 29.86 in 10.0 mi South 20.7 mph 29.9 mph N/A   Clear
1:15 AM 82.4 °F 82.0 °F 57.2 °F 42% 29.85 in 10.0 mi South 20.7 mph 28.8 mph N/A   Clear
1:35 AM 80.6 °F 80.8 °F 57.2 °F 45% 29.84 in 10.0 mi South 20.7 mph 26.5 mph N/A   Clear
1:55 AM 80.6 °F 80.8 °F 57.2 °F 45% 29.84 in 10.0 mi South 23.0 mph 29.9 mph N/A   Clear
2:15 AM 80.6 °F 80.5 °F 55.4 °F 42% 29.83 in 10.0 mi South 20.7 mph 27.6 mph N/A   Clear
2:35 AM 78.8 °F - 55.4 °F 44% 29.84 in 10.0 mi South 21.9 mph 31.1 mph N/A   Clear
2:55 AM 78.8 °F - 55.4 °F 44% 29.84 in 10.0 mi South 19.6 mph 27.6 mph N/A   Clear
3:15 AM 78.8 °F - 55.4 °F 44% 29.84 in 10.0 mi SSW 17.3 mph 23.0 mph N/A   Clear
3:35 AM 78.8 °F - 55.4 °F 44% 29.83 in 10.0 mi SSW 19.6 mph 25.3 mph N/A   Clear
3:55 AM 78.8 °F - 55.4 °F 44% 29.83 in 10.0 mi SSW 20.7 mph 26.5 mph N/A   Clear
4:15 AM 78.8 °F - 55.4 °F 44% 29.83 in 10.0 mi SSW 20.7 mph 27.6 mph N/A   Clear
4:35 AM 78.8 °F - 55.4 °F 44% 29.83 in 10.0 mi SSW 20.7 mph 28.8 mph N/A   Clear
4:55 AM 78.8 °F - 55.4 °F 44% 29.83 in 10.0 mi SSW 21.9 mph 28.8 mph N/A   Clear
5:15 AM 78.8 °F - 55.4 °F 44% 29.83 in 10.0 mi South 23.0 mph 29.9 mph N/A   Clear
5:35 AM 78.8 °F - 55.4 °F 44% 29.82 in 10.0 mi South 20.7 mph 32.2 mph N/A   Clear
5:55 AM 78.8 °F - 55.4 °F 44% 29.82 in 10.0 mi South 23.0 mph 29.9 mph N/A   Clear
6:15 AM 78.8 °F - 55.4 °F 44% 29.82 in 10.0 mi SSW 26.5 mph 33.4 mph N/A   Clear
6:35 AM 78.8 °F - 55.4 °F 44% 29.81 in 10.0 mi SSW 23.0 mph 31.1 mph N/A   Clear
6:55 AM 78.8 °F - 55.4 °F 44% 29.83 in 10.0 mi SSW 24.2 mph 29.9 mph N/A   Clear
7:15 AM 77.0 °F - 55.4 °F 47% 29.83 in 10.0 mi SSW 19.6 mph 28.8 mph N/A   Clear
7:35 AM 78.8 °F - 57.2 °F 47% 29.84 in 10.0 mi SSW 18.4 mph 24.2 mph N/A   Clear
7:55 AM 78.8 °F - 57.2 °F 47% 29.86 in 10.0 mi SSW 15.0 mph 24.2 mph N/A   Clear
8:15 AM 78.8 °F - 57.2 °F 47% 29.86 in 10.0 mi SSW 20.7 mph 27.6 mph N/A   Clear
8:35 AM 80.6 °F 81.1 °F 59.0 °F 48% 29.85 in 10.0 mi South 19.6 mph 26.5 mph N/A   Clear
8:55 AM 80.6 °F 81.1 °F 59.0 °F 48% 29.85 in 10.0 mi South 23.0 mph 32.2 mph N/A   Clear
9:15 AM 80.6 °F 81.1 °F 59.0 °F 48% 29.85 in 10.0 mi SSW 27.6 mph 34.5 mph N/A   Clear
9:35 AM 82.4 °F 82.5 °F 59.0 °F 45% 29.85 in 10.0 mi South 25.3 mph 36.8 mph N/A   Clear
9:55 AM 82.4 °F 82.5 °F 59.0 °F 45% 29.86 in 10.0 mi SSW 23.0 mph 32.2 mph N/A   Clear
10:15 AM 84.2 °F 83.8 °F 59.0 °F 42% 29.87 in 10.0 mi SSW 20.7 mph 33.4 mph N/A   Clear
10:35 AM 86.0 °F 85.4 °F 59.0 °F 40% 29.87 in 10.0 mi SSW 17.3 mph 27.6 mph N/A   Clear
10:55 AM 86.0 °F 85.4 °F 59.0 °F 40% 29.87 in 10.0 mi South 18.4 mph 29.9 mph N/A   Clear
11:15 AM 87.8 °F 87.1 °F 59.0 °F 38% 29.88 in 10.0 mi South 19.6 mph 27.6 mph N/A   Clear
11:35 AM 87.8 °F 87.1 °F 59.0 °F 38% 29.89 in 10.0 mi SSW 18.4 mph 24.2 mph N/A   Clear
11:55 AM 89.6 °F 88.9 °F 59.0 °F 36% 29.88 in 10.0 mi SSW 21.9 mph 26.5 mph N/A   Clear
12:15 PM 89.6 °F 88.9 °F 59.0 °F 36% 29.87 in 10.0 mi South 21.9 mph 26.5 mph N/A   Clear
12:35 PM 89.6 °F 88.9 °F 59.0 °F 36% 29.88 in 10.0 mi South 17.3 mph 27.6 mph N/A   Clear
12:55 PM 91.4 °F 91.4 °F 60.8 °F 36% 29.87 in 10.0 mi South 18.4 mph 24.2 mph N/A   Clear
1:15 PM 91.4 °F 90.7 °F 59.0 °F 34% 29.87 in 10.0 mi South 18.4 mph 26.5 mph N/A   Clear
1:35 PM 91.4 °F 91.4 °F 60.8 °F 36% 29.87 in 10.0 mi South 20.7 mph 26.5 mph N/A   Clear
1:55 PM 91.4 °F 91.4 °F 60.8 °F 36% 29.86 in 10.0 mi South 17.3 mph 24.2 mph N/A   Clear
2:15 PM 91.4 °F 92.1 °F 62.6 °F 38% 29.86 in 10.0 mi SSE 18.4 mph 26.5 mph N/A   Clear
2:35 PM 91.4 °F 92.1 °F 62.6 °F 38% 29.86 in 10.0 mi South 20.7 mph 27.6 mph N/A   Clear
2:55 PM 91.4 °F 92.1 °F 62.6 °F 38% 29.85 in 10.0 mi SSW 20.7 mph 26.5 mph N/A   Clear
3:15 PM 91.4 °F 92.1 °F 62.6 °F 38% 29.85 in 10.0 mi South 21.9 mph 31.1 mph N/A   Clear
3:35 PM 91.4 °F 92.1 °F 62.6 °F 38% 29.85 in 10.0 mi South 20.7 mph 27.6 mph N/A   Clear
3:55 PM 91.4 °F 91.4 °F 60.8 °F 36% 29.84 in 10.0 mi South 18.4 mph 26.5 mph N/A   Clear
4:15 PM 93.2 °F 93.3 °F 60.8 °F 34% 29.84 in 10.0 mi South 25.3 mph 32.2 mph N/A   Clear
4:35 PM 93.2 °F 93.3 °F 60.8 °F 34% 29.84 in 10.0 mi South 24.2 mph 27.6 mph N/A   Clear
4:55 PM 93.2 °F 92.6 °F 59.0 °F 32% 29.83 in 10.0 mi South 24.2 mph 29.9 mph N/A   Clear
5:15 PM 93.2 °F 92.6 °F 59.0 °F 32% 29.83 in 10.0 mi South 17.3 mph - N/A   Clear
5:35 PM 91.4 °F 90.7 °F 59.0 °F 34% 29.83 in 10.0 mi South 17.3 mph 26.5 mph N/A   Clear
5:55 PM 91.4 °F 90.7 °F 59.0 °F 34% 29.83 in 10.0 mi South 20.7 mph 26.5 mph N/A   Clear
6:15 PM 91.4 °F 90.7 °F 59.0 °F 34% 29.82 in 10.0 mi South 19.6 mph - N/A   Clear
6:35 PM 91.4 °F 90.7 °F 59.0 °F 34% 29.82 in 10.0 mi South 18.4 mph 27.6 mph N/A   Clear
6:55 PM 93.2 °F 92.6 °F 59.0 °F 32% 29.81 in 10.0 mi South 16.1 mph 21.9 mph N/A   Clear
7:15 PM 93.2 °F 91.3 °F 55.4 °F 28% 29.81 in 10.0 mi South 17.3 mph 27.6 mph N/A   Clear
7:35 PM 91.4 °F 89.4 °F 55.4 °F 29% 29.81 in 10.0 mi South 19.6 mph 28.8 mph N/A   Clear
7:55 PM 91.4 °F 89.4 °F 55.4 °F 29% 29.82 in 10.0 mi South 17.3 mph 23.0 mph N/A   Clear
8:15 PM 89.6 °F 87.7 °F 55.4 °F 31% 29.83 in 10.0 mi South 13.8 mph 19.6 mph N/A   Clear
8:35 PM 87.8 °F 85.7 °F 53.6 °F 31% 29.83 in 10.0 mi South 11.5 mph 20.7 mph N/A   Clear
8:55 PM 87.8 °F - 51.8 °F 29% 29.83 in 10.0 mi South 13.8 mph - N/A   Clear
9:15 PM 86.0 °F - 51.8 °F 31% 29.84 in 10.0 mi SSE 12.7 mph 17.3 mph N/A   Clear
9:35 PM 86.0 °F - 50.0 °F 29% 29.84 in 10.0 mi SSE 13.8 mph 19.6 mph N/A   Clear
9:55 PM 86.0 °F - 50.0 °F 29% 29.85 in 10.0 mi SSE 13.8 mph - N/A   Clear
10:15 PM 86.0 °F - 50.0 °F 29% 29.86 in 10.0 mi SSE 17.3 mph 21.9 mph N/A   Clear
10:35 PM 86.0 °F - 51.8 °F 31% 29.87 in 10.0 mi SSE 11.5 mph 18.4 mph N/A   Clear
10:55 PM 86.0 °F - 51.8 °F 31% 29.88 in 10.0 mi SSE 17.3 mph 25.3 mph N/A   Clear
11:15 PM 86.0 °F 84.2 °F 53.6 °F 33% 29.88 in 10.0 mi SSE 18.4 mph 26.5 mph N/A   Clear
11:35 PM 84.2 °F 82.8 °F 53.6 °F 35% 29.88 in 10.0 mi SSE 21.9 mph 28.8 mph N/A   Clear
11:55 PM 84.2 °F 82.8 °F 53.6 °F 35% 29.87 in 10.0 mi SSE 21.9 mph 28.8 mph N/A   Clear